QPF
0.01 0.01 0.01 0.02 0.03 0.04 0.06 0.07 0.08 0.07 0.06 0.05 0.04 0.04 0.05 0.05 0.06 0.07 0.06 0.07 0.08 0.07 0.05 0.04 0.04 0.04 0.05 0.06 0.07 0.07 0.08 0.08 0.06 0.05 0.06 0.07 0.07 0.07 0.08 0.10 0.10 0.07 0.07
0.03 0.03 0.05 0.07 0.05 0.05 0.07 0.06 0.06 0.05 0.05 0.05 0.05 0.05 0.05 0.06 0.07 0.07 0.07 0.08 0.08 0.07 0.07 0.05 0.06 0.07 0.06 0.07 0.08 0.08 0.08 0.08 0.06 0.04 0.05 0.05 0.04 0.06 0.07 0.07 0.06 0.04 0.03
0.13 0.11 0.06 0.03 0.02 0.03 0.03 0.04 0.04 0.04 0.03 0.03 0.04 0.04 0.04 0.05 0.06 0.06 0.07 0.07 0.07 0.06 0.06 0.05 0.07 0.09 0.08 0.08 0.07 0.07 0.06 0.06 0.04 0.03 0.02 0.03 0.04 0.05 0.05 0.04 0.04 0.04 0.04
0.05 0.02 0.01 0.01 0.02 0.03 0.03 0.03 0.04 0.05 0.04 0.04 0.03 0.03 0.03 0.04 0.05 0.05 0.06 0.06 0.06 0.07 0.07 0.07 0.08 0.07 0.07 0.07 0.05 0.05 0.04 0.03 0.03 0.03 0.02 0.04 0.05 0.06 0.05 0.04 0.03 0.03 0.04
0.00 0.00 0.00 0.00 0.01 0.02 0.02 0.03 0.02 0.04 0.04 0.03 0.03 0.03 0.04 0.04 0.04 0.04 0.04 0.04 0.04 0.05 0.06 0.06 0.06 0.06 0.06 0.07 0.05 0.05 0.04 0.03 0.03 0.03 0.03 0.02 0.03 0.04 0.03 0.04 0.03 0.03 0.04
0.01 0.00 0.00 0.00 0.00 0.01 0.02 0.03 0.03 0.02 0.03 0.02 0.02 0.03 0.04 0.03 0.03 0.03 0.03 0.03 0.03 0.04 0.04 0.05 0.06 0.06 0.08 0.09 0.07 0.06 0.04 0.03 0.03 0.03 0.03 0.02 0.02 0.02 0.02 0.02 0.02 0.02 0.02
0.01 0.00 0.00 0.00 0.01 0.01 0.01 0.02 0.05 0.04 0.03 0.03 0.02 0.03 0.04 0.04 0.04 0.04 0.04 0.03 0.04 0.04 0.04 0.06 0.06 0.06 0.07 0.07 0.07 0.05 0.04 0.03 0.03 0.03 0.03 0.03 0.03 0.03 0.03 0.02 0.02 0.01 0.01
0.02 0.01 0.02 0.02 0.02 0.02 0.02 0.03 0.03 0.05 0.05 0.04 0.03 0.04 0.04 0.05 0.06 0.05 0.04 0.03 0.04 0.04 0.04 0.04 0.04 0.04 0.05 0.05 0.05 0.04 0.03 0.03 0.03 0.03 0.03 0.03 0.03 0.03 0.03 0.02 0.02 0.03 0.03
0.04 0.04 0.04 0.04 0.03 0.03 0.03 0.03 0.06 0.07 0.07 0.06 0.05 0.04 0.05 0.05 0.05 0.05 0.04 0.03 0.04 0.05 0.05 0.04 0.05 0.05 0.06 0.06 0.05 0.04 0.04 0.04 0.04 0.03 0.03 0.03 0.03 0.02 0.02 0.01 0.01 0.01 0.01
0.07 0.06 0.06 0.06 0.06 0.05 0.04 0.04 0.05 0.09 0.12 0.11 0.09 0.07 0.06 0.06 0.05 0.05 0.05 0.08 0.10 0.09 0.06 0.04 0.04 0.05 0.08 0.08 0.06 0.05 0.03 0.02 0.02 0.01 0.01 0.01 0.01 0.01 0.01 0.01 0.01 0.02 0.02
0.11 0.10 0.10 0.11 0.11 0.10 0.09 0.08 0.06 0.05 0.05 0.07 0.09 0.10 0.10 0.08 0.06 0.08 0.10 0.09 0.07 0.05 0.03 0.02 0.03 0.04 0.04 0.04 0.03 0.02 0.02 0.02 0.02 0.02 0.02 0.01 0.01 0.01 0.02 0.02 0.02 0.02 0.02
0.12 0.14 0.14 0.14 0.14 0.12 0.10 0.08 0.07 0.06 0.06 0.05 0.05 0.05 0.07 0.09 0.08 0.07 0.05 0.04 0.04 0.03 0.02 0.02 0.02 0.03 0.02 0.02 0.02 0.01 0.01 0.01 0.01 0.01 0.01 0.01 0.01 0.01 0.01 0.02 0.03 0.03 0.02
0.15 0.13 0.13 0.14 0.13 0.10 0.09 0.08 0.08 0.07 0.07 0.08 0.06 0.05 0.05 0.06 0.06 0.04 0.03 0.04 0.04 0.03 0.03 0.03 0.02 0.02 0.02 0.02 0.02 0.02 0.02 0.01 0.01 0.01 0.01 0.01 0.01 0.01 0.01 0.02 0.02 0.03 0.03
0.12 0.12 0.13 0.14 0.12 0.10 0.10 0.11 0.10 0.09 0.09 0.08 0.05 0.04 0.05 0.06 0.05 0.03 0.02 0.02 0.02 0.02 0.02 0.02 0.02 0.02 0.02 0.01 0.01 0.01 0.01 0.01 0.01 0.01 0.01 0.01 0.02 0.02 0.02 0.01 0.02 0.02 0.02
0.09 0.11 0.12 0.13 0.11 0.12 0.15 0.17 0.12 0.09 0.08 0.08 0.05 0.05 0.06 0.04 0.03 0.03 0.03 0.02 0.02 0.03 0.02 0.01 0.01 0.01 0.01 0.01 0.01 0.01 0.01 0.01 0.01 0.01 0.01 0.01 0.02 0.02 0.02 0.02 0.03 0.03 0.04
0.10 0.10 0.11 0.13 0.13 0.12 0.13 0.13 0.12 0.09 0.05 0.05 0.04 0.04 0.04 0.04 0.03 0.03 0.03 0.03 0.02 0.02 0.01 0.01 0.01 0.01 0.01 0.01 0.00 0.00 0.00 0.01 0.01 0.02 0.03 0.03 0.03 0.03 0.03 0.03 0.03 0.04 0.04
0.11 0.10 0.11 0.11 0.10 0.09 0.08 0.07 0.07 0.05 0.04 0.04 0.04 0.05 0.06 0.06 0.05 0.03 0.03 0.03 0.02 0.01 0.01 0.01 0.01 0.01 0.01 0.01 0.02 0.02 0.02 0.03 0.04 0.04 0.03 0.03 0.03 0.03 0.03 0.03 0.03 0.04 0.04
0.09 0.10 0.10 0.09 0.09 0.08 0.08 0.07 0.06 0.05 0.04 0.05 0.06 0.08 0.08 0.07 0.05 0.03 0.02 0.02 0.01 0.01 0.00 0.00 0.01 0.01 0.01 0.02 0.02 0.02 0.02 0.01 0.01 0.01 0.01 0.01 0.01 0.01 0.02 0.02 0.03 0.03 0.03
0.07 0.08 0.10 0.11 0.10 0.09 0.07 0.06 0.05 0.04 0.04 0.04 0.04 0.04 0.04 0.04 0.04 0.03 0.02 0.02 0.01 0.01 0.01 0.01 0.01 0.01 0.01 0.01 0.01 0.01 0.01 0.01 0.01 0.02 0.02 0.02 0.02 0.03 0.03 0.03 0.03 0.04 0.03
0.14 0.16 0.16 0.15 0.14 0.12 0.09 0.06 0.05 0.04 0.03 0.02 0.02 0.02 0.02 0.03 0.03 0.03 0.02 0.02 0.02 0.01 0.02 0.01 0.01 0.01 0.01 0.01 0.01 0.01 0.01 0.01 0.02 0.02 0.02 0.02 0.03 0.03 0.03 0.03 0.03 0.03 0.04
0.15 0.16 0.18 0.19 0.17 0.16 0.14 0.10 0.08 0.06 0.05 0.04 0.04 0.03 0.02 0.02 0.02 0.02 0.02 0.02 0.02 0.02 0.02 0.02 0.02 0.02 0.01 0.01 0.01 0.01 0.01 0.01 0.02 0.02 0.02 0.03 0.03 0.03 0.03 0.03 0.02 0.02 0.02
0.08 0.08 0.09 0.10 0.10 0.10 0.10 0.09 0.08 0.07 0.06 0.05 0.04 0.03 0.03 0.02 0.02 0.02 0.01 0.01 0.01 0.01 0.01 0.01 0.01 0.01 0.01 0.01 0.01 0.01 0.01 0.01 0.02 0.02 0.02 0.02 0.02 0.02 0.02 0.03 0.03 0.02 0.02
0.04 0.03 0.04 0.04 0.05 0.05 0.05 0.05 0.05 0.04 0.04 0.03 0.02 0.02 0.02 0.01 0.01 0.01 0.01 0.01 0.01 0.01 0.01 0.01 0.01 0.01 0.01 0.01 0.01 0.01 0.02 0.02 0.02 0.02 0.02 0.02 0.02 0.02 0.02 0.02 0.02 0.02 0.03
0.03 0.03 0.03 0.02 0.03 0.03 0.02 0.02 0.02 0.02 0.02 0.01 0.01 0.01 0.01 0.01 0.01 0.01 0.01 0.01 0.01 0.01 0.01 0.01 0.01 0.01 0.01 0.01 0.01 0.01 0.02 0.02 0.02 0.02 0.02 0.02 0.02 0.03 0.03 0.03 0.03 0.04 0.04
0.04 0.03 0.03 0.02 0.02 0.02 0.01 0.01 0.01 0.01 0.01 0.01 0.01 0.01 0.02 0.02 0.02 0.02 0.02 0.02 0.02 0.01 0.01 0.01 0.01 0.01 0.01 0.01 0.01 0.01 0.01 0.01 0.01 0.01 0.02 0.02 0.02 0.02 0.02 0.02 0.02 0.02 0.03
0.05 0.04 0.03 0.03 0.02 0.02 0.02 0.02 0.02 0.01 0.02 0.02 0.03 0.03 0.03 0.03 0.03 0.03 0.03 0.04 0.04 0.04 0.04 0.03 0.03 0.02 0.02 0.01 0.01 0.01 0.01 0.01 0.01 0.01 0.01 0.01 0.01 0.02 0.02 0.02 0.02 0.02 0.02
MSLP
1012.54 1012.91 1013.29 1013.61 1013.84 1013.95 1013.95 1013.89 1013.80 1013.75 1013.76 1013.87 1014.06 1014.31 1014.58 1014.85 1015.06 1015.22 1015.33 1015.41 1015.48 1015.57 1015.72 1015.94 1016.20 1016.50 1016.81 1017.08 1017.30 1017.44 1017.49 1017.47 1017.37 1017.23 1017.07 1016.90 1016.76 1016.65 1016.59 1016.58 1016.63 1016.74 1016.90
1012.61 1012.92 1013.23 1013.47 1013.63 1013.69 1013.67 1013.61 1013.56 1013.56 1013.64 1013.81 1014.06 1014.36 1014.66 1014.94 1015.16 1015.31 1015.40 1015.45 1015.50 1015.58 1015.71 1015.90 1016.14 1016.43 1016.73 1017.01 1017.24 1017.39 1017.48 1017.49 1017.44 1017.35 1017.24 1017.12 1017.02 1016.95 1016.92 1016.93 1016.98 1017.08 1017.22
1012.67 1012.96 1013.21 1013.39 1013.48 1013.49 1013.45 1013.40 1013.39 1013.44 1013.59 1013.83 1014.14 1014.49 1014.84 1015.13 1015.36 1015.50 1015.58 1015.61 1015.63 1015.68 1015.79 1015.95 1016.18 1016.46 1016.75 1017.03 1017.26 1017.44 1017.55 1017.60 1017.59 1017.55 1017.49 1017.42 1017.36 1017.32 1017.31 1017.31 1017.35 1017.43 1017.53
1012.68 1012.97 1013.19 1013.32 1013.36 1013.34 1013.28 1013.24 1013.26 1013.37 1013.59 1013.90 1014.28 1014.68 1015.06 1015.37 1015.60 1015.74 1015.80 1015.81 1015.81 1015.84 1015.92 1016.07 1016.28 1016.54 1016.83 1017.10 1017.35 1017.54 1017.67 1017.75 1017.78 1017.78 1017.76 1017.74 1017.71 1017.70 1017.69 1017.69 1017.71 1017.74 1017.80
1012.58 1012.90 1013.12 1013.24 1013.25 1013.21 1013.15 1013.12 1013.17 1013.33 1013.60 1013.97 1014.40 1014.85 1015.26 1015.59 1015.82 1015.96 1016.01 1016.00 1015.99 1016.00 1016.06 1016.19 1016.39 1016.65 1016.92 1017.20 1017.44 1017.65 1017.80 1017.90 1017.96 1018.00 1018.01 1018.02 1018.02 1018.02 1018.01 1018.00 1017.99 1017.99 1018.00
1012.38 1012.75 1013.00 1013.12 1013.13 1013.08 1013.02 1013.01 1013.09 1013.28 1013.59 1014.00 1014.47 1014.94 1015.37 1015.71 1015.95 1016.08 1016.13 1016.12 1016.10 1016.10 1016.17 1016.30 1016.49 1016.74 1017.01 1017.28 1017.53 1017.73 1017.89 1018.00 1018.08 1018.14 1018.18 1018.21 1018.23 1018.24 1018.24 1018.22 1018.19 1018.15 1018.12
1012.13 1012.56 1012.84 1012.98 1013.00 1012.96 1012.91 1012.91 1013.01 1013.22 1013.55 1013.98 1014.46 1014.94 1015.37 1015.71 1015.95 1016.08 1016.13 1016.13 1016.12 1016.14 1016.22 1016.36 1016.56 1016.81 1017.08 1017.34 1017.57 1017.77 1017.93 1018.04 1018.13 1018.20 1018.25 1018.30 1018.34 1018.36 1018.37 1018.34 1018.30 1018.24 1018.17
1011.88 1012.36 1012.68 1012.85 1012.90 1012.87 1012.83 1012.85 1012.95 1013.17 1013.50 1013.92 1014.38 1014.85 1015.27 1015.60 1015.83 1015.97 1016.03 1016.06 1016.08 1016.13 1016.23 1016.39 1016.61 1016.86 1017.12 1017.38 1017.60 1017.78 1017.92 1018.02 1018.11 1018.18 1018.24 1018.30 1018.36 1018.40 1018.41 1018.40 1018.35 1018.28 1018.20
1011.70 1012.22 1012.57 1012.76 1012.83 1012.83 1012.81 1012.83 1012.94 1013.15 1013.46 1013.86 1014.29 1014.72 1015.11 1015.43 1015.65 1015.80 1015.89 1015.94 1016.00 1016.09 1016.24 1016.43 1016.66 1016.92 1017.18 1017.41 1017.61 1017.77 1017.89 1017.98 1018.05 1018.12 1018.18 1018.26 1018.33 1018.39 1018.42 1018.42 1018.38 1018.31 1018.22
1011.63 1012.15 1012.51 1012.73 1012.83 1012.85 1012.85 1012.89 1013.00 1013.20 1013.49 1013.85 1014.24 1014.63 1014.99 1015.27 1015.49 1015.65 1015.76 1015.85 1015.95 1016.09 1016.27 1016.49 1016.74 1017.00 1017.25 1017.47 1017.64 1017.77 1017.87 1017.93 1017.99 1018.05 1018.13 1018.21 1018.29 1018.37 1018.42 1018.44 1018.42 1018.36 1018.26
1011.64 1012.15 1012.52 1012.75 1012.87 1012.93 1012.97 1013.03 1013.15 1013.35 1013.62 1013.95 1014.30 1014.64 1014.96 1015.22 1015.43 1015.58 1015.71 1015.84 1015.98 1016.15 1016.36 1016.60 1016.86 1017.12 1017.35 1017.55 1017.69 1017.80 1017.87 1017.92 1017.96 1018.02 1018.09 1018.19 1018.29 1018.38 1018.45 1018.49 1018.48 1018.43 1018.34
1011.72 1012.19 1012.55 1012.79 1012.95 1013.04 1013.13 1013.23 1013.39 1013.59 1013.86 1014.16 1014.48 1014.79 1015.07 1015.30 1015.49 1015.65 1015.79 1015.93 1016.09 1016.28 1016.50 1016.75 1017.01 1017.25 1017.46 1017.63 1017.76 1017.84 1017.89 1017.92 1017.96 1018.02 1018.10 1018.20 1018.32 1018.42 1018.51 1018.56 1018.56 1018.51 1018.43
1011.82 1012.24 1012.57 1012.83 1013.01 1013.16 1013.31 1013.47 1013.67 1013.91 1014.19 1014.48 1014.79 1015.07 1015.32 1015.53 1015.70 1015.84 1015.97 1016.11 1016.27 1016.46 1016.68 1016.91 1017.14 1017.36 1017.55 1017.70 1017.80 1017.87 1017.91 1017.95 1017.99 1018.05 1018.14 1018.25 1018.37 1018.48 1018.57 1018.62 1018.62 1018.58 1018.48
1011.90 1012.26 1012.57 1012.84 1013.06 1013.27 1013.48 1013.71 1013.97 1014.26 1014.56 1014.87 1015.17 1015.44 1015.66 1015.85 1015.99 1016.12 1016.23 1016.35 1016.48 1016.65 1016.83 1017.03 1017.23 1017.42 1017.58 1017.71 1017.81 1017.87 1017.92 1017.97 1018.02 1018.09 1018.19 1018.30 1018.42 1018.52 1018.60 1018.64 1018.63 1018.57 1018.47
1011.95 1012.27 1012.55 1012.82 1013.08 1013.34 1013.62 1013.93 1014.25 1014.59 1014.94 1015.27 1015.57 1015.83 1016.04 1016.20 1016.32 1016.41 1016.49 1016.57 1016.66 1016.78 1016.92 1017.08 1017.24 1017.40 1017.54 1017.65 1017.75 1017.82 1017.89 1017.96 1018.03 1018.12 1018.22 1018.33 1018.43 1018.52 1018.57 1018.58 1018.55 1018.47 1018.35
1012.00 1012.27 1012.54 1012.81 1013.10 1013.41 1013.75 1014.11 1014.50 1014.89 1015.27 1015.62 1015.93 1016.19 1016.38 1016.51 1016.60 1016.65 1016.68 1016.72 1016.76 1016.83 1016.92 1017.03 1017.15 1017.28 1017.41 1017.52 1017.63 1017.73 1017.83 1017.92 1018.02 1018.12 1018.22 1018.32 1018.40 1018.45 1018.46 1018.43 1018.35 1018.24 1018.09
1012.09 1012.32 1012.57 1012.84 1013.15 1013.50 1013.88 1014.29 1014.71 1015.13 1015.53 1015.90 1016.21 1016.45 1016.62 1016.73 1016.78 1016.79 1016.78 1016.77 1016.77 1016.78 1016.83 1016.90 1016.99 1017.10 1017.23 1017.36 1017.49 1017.62 1017.74 1017.87 1017.99 1018.10 1018.19 1018.26 1018.30 1018.30 1018.26 1018.17 1018.05 1017.90 1017.72
1012.22 1012.43 1012.67 1012.95 1013.27 1013.63 1014.03 1014.46 1014.89 1015.32 1015.73 1016.08 1016.37 1016.60 1016.74 1016.82 1016.85 1016.83 1016.78 1016.73 1016.69 1016.67 1016.69 1016.73 1016.81 1016.92 1017.05 1017.20 1017.36 1017.52 1017.68 1017.83 1017.96 1018.07 1018.14 1018.18 1018.16 1018.10 1018.00 1017.85 1017.67 1017.47 1017.27
1012.39 1012.61 1012.85 1013.13 1013.46 1013.82 1014.22 1014.64 1015.06 1015.47 1015.85 1016.18 1016.44 1016.63 1016.75 1016.81 1016.80 1016.76 1016.70 1016.63 1016.58 1016.54 1016.55 1016.59 1016.67 1016.79 1016.94 1017.11 1017.29 1017.48 1017.66 1017.82 1017.95 1018.04 1018.08 1018.07 1018.00 1017.87 1017.70 1017.49 1017.26 1017.02 1016.80
1012.57 1012.81 1013.07 1013.36 1013.69 1014.05 1014.44 1014.83 1015.22 1015.59 1015.93 1016.21 1016.43 1016.58 1016.67 1016.71 1016.69 1016.64 1016.58 1016.52 1016.47 1016.45 1016.47 1016.53 1016.63 1016.76 1016.93 1017.13 1017.33 1017.53 1017.71 1017.87 1017.98 1018.04 1018.03 1017.96 1017.82 1017.63 1017.40 1017.13 1016.86 1016.59 1016.35
1012.68 1012.95 1013.25 1013.57 1013.91 1014.27 1014.64 1015.01 1015.35 1015.67 1015.96 1016.19 1016.36 1016.48 1016.54 1016.56 1016.55 1016.51 1016.47 1016.44 1016.43 1016.44 1016.49 1016.58 1016.71 1016.87 1017.06 1017.27 1017.48 1017.67 1017.84 1017.97 1018.05 1018.06 1018.00 1017.87 1017.67 1017.42 1017.13 1016.83 1016.53 1016.25 1016.00
1012.64 1012.98 1013.33 1013.69 1014.06 1014.43 1014.78 1015.12 1015.43 1015.70 1015.93 1016.11 1016.25 1016.34 1016.39 1016.41 1016.41 1016.41 1016.41 1016.42 1016.46 1016.53 1016.63 1016.76 1016.93 1017.12 1017.32 1017.53 1017.73 1017.90 1018.04 1018.13 1018.15 1018.10 1017.99 1017.80 1017.55 1017.26 1016.93 1016.61 1016.30 1016.02 1015.79
1012.41 1012.82 1013.24 1013.65 1014.06 1014.45 1014.81 1015.14 1015.42 1015.65 1015.84 1015.99 1016.10 1016.17 1016.22 1016.26 1016.30 1016.34 1016.40 1016.48 1016.58 1016.72 1016.87 1017.06 1017.25 1017.46 1017.67 1017.87 1018.04 1018.18 1018.27 1018.31 1018.28 1018.17 1018.00 1017.76 1017.48 1017.16 1016.82 1016.49 1016.19 1015.93 1015.73
1012.01 1012.49 1012.98 1013.45 1013.91 1014.33 1014.71 1015.03 1015.30 1015.52 1015.69 1015.81 1015.91 1015.99 1016.06 1016.13 1016.21 1016.32 1016.44 1016.60 1016.77 1016.97 1017.19 1017.41 1017.64 1017.86 1018.07 1018.25 1018.39 1018.49 1018.53 1018.51 1018.42 1018.26 1018.05 1017.78 1017.47 1017.14 1016.81 1016.50 1016.23 1016.00 1015.84
1011.50 1012.04 1012.58 1013.12 1013.62 1014.07 1014.47 1014.81 1015.08 1015.30 1015.47 1015.60 1015.70 1015.80 1015.90 1016.02 1016.16 1016.33 1016.53 1016.75 1017.00 1017.26 1017.53 1017.79 1018.05 1018.28 1018.48 1018.63 1018.74 1018.79 1018.79 1018.71 1018.58 1018.39 1018.14 1017.85 1017.54 1017.22 1016.91 1016.63 1016.39 1016.21 1016.09
1010.99 1011.57 1012.15 1012.72 1013.26 1013.74 1014.16 1014.52 1014.80 1015.03 1015.21 1015.36 1015.50 1015.63 1015.78 1015.94 1016.14 1016.38 1016.64 1016.93 1017.24 1017.56 1017.87 1018.16 1018.43 1018.67 1018.86 1018.99 1019.07 1019.09 1019.04 1018.94 1018.77 1018.56 1018.30 1018.01 1017.71 1017.41 1017.12 1016.88 1016.67 1016.53 1016.44
Thickness
5796 5792 5788 5784 5781 5777 5774 5771 5768 5766 5763 5761 5759 5757 5755 5753 5751 5747 5745 5743 5740 5739 5738 5736 5735 5734 5732 5730 5728 5725 5721 5717 5711 5709 5709 5708 5707 5704 5701 5699 5697 5696 5694
5798 5793 5789 5785 5781 5777 5774 5771 5768 5765 5763 5761 5758 5756 5753 5751 5749 5745 5742 5740 5737 5735 5734 5733 5732 5731 5729 5727 5724 5722 5718 5716 5711 5705 5703 5702 5700 5698 5695 5693 5691 5689 5687
5799 5793 5788 5785 5781 5776 5773 5771 5768 5765 5762 5759 5757 5754 5751 5749 5746 5743 5739 5737 5735 5733 5732 5730 5728 5726 5724 5722 5720 5718 5715 5712 5709 5704 5699 5697 5694 5691 5688 5686 5683 5681 5679
5798 5792 5788 5785 5781 5777 5774 5770 5767 5764 5760 5757 5755 5752 5749 5747 5744 5741 5737 5734 5732 5731 5729 5727 5725 5723 5721 5719 5717 5714 5710 5706 5703 5699 5694 5691 5688 5685 5682 5678 5675 5673 5671
5797 5792 5788 5786 5782 5777 5773 5769 5766 5762 5759 5755 5752 5749 5746 5744 5741 5738 5735 5732 5729 5727 5726 5724 5722 5721 5719 5716 5713 5709 5706 5701 5697 5693 5689 5685 5682 5679 5676 5673 5669 5665 5663
5795 5791 5788 5784 5779 5775 5771 5767 5762 5759 5756 5752 5748 5745 5742 5740 5738 5736 5733 5729 5726 5723 5720 5718 5717 5715 5714 5711 5709 5706 5703 5698 5693 5689 5685 5681 5678 5676 5672 5669 5664 5659 5655
5794 5790 5786 5782 5777 5772 5768 5763 5758 5754 5751 5747 5743 5740 5737 5735 5734 5732 5729 5726 5722 5719 5715 5712 5710 5708 5706 5704 5701 5699 5697 5694 5692 5687 5682 5679 5675 5672 5668 5663 5658 5654 5651
5791 5787 5783 5779 5773 5769 5764 5758 5754 5750 5746 5742 5738 5735 5732 5729 5728 5726 5724 5721 5717 5714 5711 5708 5705 5701 5699 5697 5694 5691 5688 5686 5684 5682 5679 5676 5672 5668 5664 5659 5654 5648 5643
5784 5782 5780 5776 5770 5764 5759 5754 5751 5747 5742 5738 5734 5730 5726 5723 5722 5720 5718 5714 5710 5706 5704 5702 5699 5695 5693 5691 5687 5683 5681 5678 5677 5674 5672 5669 5666 5662 5657 5651 5645 5639 5634
5778 5777 5776 5772 5765 5760 5756 5751 5747 5743 5738 5734 5730 5726 5722 5718 5716 5714 5712 5707 5702 5698 5695 5693 5691 5688 5686 5684 5680 5676 5673 5670 5668 5666 5663 5660 5657 5653 5649 5645 5640 5634 5628
5774 5771 5768 5764 5759 5755 5750 5745 5742 5737 5732 5727 5723 5719 5716 5713 5710 5708 5705 5701 5697 5692 5689 5685 5683 5681 5679 5676 5673 5669 5667 5663 5659 5656 5653 5650 5646 5643 5640 5636 5633 5628 5623
5766 5762 5759 5756 5754 5750 5744 5739 5735 5731 5725 5720 5716 5711 5708 5705 5702 5700 5698 5695 5692 5687 5682 5679 5676 5673 5671 5668 5665 5662 5659 5655 5651 5647 5643 5640 5636 5634 5631 5628 5625 5621 5619
5755 5752 5750 5749 5746 5743 5738 5732 5727 5723 5718 5713 5709 5705 5701 5698 5694 5692 5690 5687 5684 5680 5676 5673 5669 5666 5663 5659 5657 5654 5650 5646 5641 5637 5634 5631 5629 5626 5623 5619 5616 5612 5609
5744 5741 5740 5737 5735 5732 5729 5724 5720 5715 5711 5707 5703 5700 5696 5691 5686 5684 5681 5678 5675 5671 5667 5664 5660 5657 5653 5650 5647 5644 5641 5637 5634 5630 5627 5623 5620 5617 5613 5610 5606 5602 5598
5733 5731 5730 5727 5724 5720 5717 5714 5711 5708 5706 5703 5699 5695 5690 5685 5682 5679 5674 5670 5667 5663 5657 5652 5648 5645 5641 5638 5636 5633 5631 5628 5624 5621 5618 5614 5611 5608 5605 5602 5597 5593 5589
5720 5719 5717 5716 5712 5709 5706 5701 5698 5697 5695 5693 5691 5688 5685 5682 5677 5672 5667 5663 5659 5654 5648 5643 5639 5636 5632 5629 5626 5623 5621 5618 5615 5612 5608 5605 5602 5599 5595 5592 5588 5584 5581
5709 5708 5706 5703 5702 5699 5696 5693 5687 5684 5683 5681 5680 5677 5675 5671 5666 5662 5657 5652 5648 5643 5639 5634 5630 5627 5623 5620 5617 5614 5611 5609 5606 5603 5599 5596 5592 5589 5586 5583 5580 5576 5573
5698 5696 5695 5693 5691 5689 5687 5684 5681 5677 5673 5669 5667 5665 5662 5659 5655 5650 5645 5640 5635 5631 5628 5625 5621 5617 5614 5611 5608 5604 5601 5598 5595 5592 5589 5586 5583 5580 5576 5573 5570 5567 5564
5687 5685 5684 5682 5680 5678 5676 5673 5670 5667 5663 5658 5654 5651 5648 5645 5641 5637 5633 5629 5626 5621 5618 5614 5611 5608 5604 5601 5598 5595 5591 5588 5585 5581 5578 5576 5573 5570 5567 5564 5561 5558 5555
5676 5676 5674 5671 5669 5667 5665 5662 5658 5654 5650 5646 5643 5639 5635 5632 5628 5623 5620 5618 5615 5611 5607 5604 5600 5597 5594 5590 5587 5584 5580 5577 5574 5571 5568 5565 5563 5560 5558 5555 5553 5549 5547
5662 5662 5661 5659 5657 5654 5652 5649 5645 5641 5637 5634 5631 5628 5625 5621 5617 5613 5609 5606 5603 5599 5596 5592 5588 5585 5582 5579 5576 5572 5569 5566 5563 5560 5557 5555 5552 5550 5548 5545 5543 5540 5538
5651 5649 5648 5647 5645 5643 5639 5637 5634 5629 5625 5622 5618 5614 5611 5609 5605 5601 5598 5594 5591 5587 5584 5581 5576 5573 5570 5567 5564 5560 5557 5554 5551 5548 5546 5544 5542 5539 5537 5534 5532 5529 5527
5640 5638 5636 5635 5633 5630 5628 5624 5620 5617 5613 5610 5606 5602 5598 5595 5592 5588 5585 5582 5579 5575 5572 5568 5564 5560 5557 5554 5551 5548 5545 5542 5540 5537 5535 5533 5530 5528 5526 5523 5521 5519 5516
5628 5627 5625 5622 5621 5618 5615 5611 5608 5605 5602 5597 5594 5590 5586 5582 5579 5576 5573 5570 5567 5563 5559 5555 5551 5548 5545 5542 5539 5536 5534 5531 5529 5527 5524 5522 5519 5517 5515 5512 5511 5509 5506
5617 5615 5613 5610 5608 5605 5602 5599 5596 5593 5589 5585 5582 5578 5574 5570 5567 5563 5559 5556 5553 5549 5546 5542 5538 5535 5532 5530 5527 5525 5523 5520 5518 5516 5514 5511 5509 5506 5504 5502 5500 5498 5496
5605 5602 5599 5597 5594 5592 5589 5586 5583 5580 5576 5572 5568 5564 5560 5557 5553 5549 5546 5542 5539 5536 5533 5529 5526 5523 5520 5518 5515 5513 5511 5509 5507 5505 5502 5500 5497 5495 5493 5491 5490 5487 5485